Location: Arezzo
(43.4170°N, 11.8830°E)
Time: 19:28:29
(UTC+01:00)

STARLINK-2709 - Pass Details

Date: 25 October 2021
Orbit: 546 x 548 km, 53.1° (Epoch: 01 December)

Event Time Altitude Azimuth Distance (km) Brightness Sun altitude
Exits shadow 05:26:17 - 172° (S) 2,115 6.6 -24.7°
Reaches altitude 10° 05:27:32 10° 159° (SSE) 1,807 6.4 -24.4°
Maximum altitude 05:29:41 14° 127° (SE) 1,570 6.5 -24.0°
Drops below altitude 10° 05:31:51 10° 95° (E) 1,815 7.3 -23.7°
Sets 05:34:59 0° 70° (ENE) 2,714 8.5 -23.1°
